Datum	Grugatrasse R�ttenscheid_West	Grugatrasse Ruhr_Ost	Huyssenallee R�ttenscheid_S�d	Huyssenallee Stadtkern_Nord
01.10.2023 00:00	2	3	6	1
01.10.2023 01:00	5	0	3	1
01.10.2023 02:00	1	0	1	0
01.10.2023 03:00	2	1	1	1
01.10.2023 04:00	2	1	0	0
01.10.2023 05:00	0	2	4	1
01.10.2023 06:00	3	1	4	5
01.10.2023 07:00	9	7	3	2
01.10.2023 08:00	20	21	4	3
01.10.2023 09:00	46	62	10	10
01.10.2023 10:00	111	112	19	28
01.10.2023 11:00	199	176	16	28
01.10.2023 12:00	183	182	19	26
01.10.2023 13:00	182	199	25	22
01.10.2023 14:00	207	182	30	24
01.10.2023 15:00	167	174	20	16
01.10.2023 16:00	161	137	34	13
01.10.2023 17:00	136	124	17	30
01.10.2023 18:00	119	75	19	21
01.10.2023 19:00	49	22	21	23
01.10.2023 20:00	16	21	14	8
01.10.2023 21:00	2	3	11	9
01.10.2023 22:00	2	6	14	5
01.10.2023 23:00	3	1	3	1
02.10.2023 00:00	0	0	2	2
02.10.2023 01:00	0	1	0	0
02.10.2023 02:00	2	0	0	1
02.10.2023 03:00	0	1	0	2
02.10.2023 04:00	0	4	2	0
02.10.2023 05:00	14	8	0	6
02.10.2023 06:00	35	21	13	16
02.10.2023 07:00	66	35	18	47
02.10.2023 08:00	48	40	13	49
02.10.2023 09:00	52	49	18	31
02.10.2023 10:00	86	100	21	45
02.10.2023 11:00	94	140	15	39
02.10.2023 12:00	105	154	30	33
02.10.2023 13:00	116	135	25	38
02.10.2023 14:00	162	121	38	42
02.10.2023 15:00	146	118	40	37
02.10.2023 16:00	148	149	56	32
02.10.2023 17:00	121	96	52	24
02.10.2023 18:00	97	77	42	25
02.10.2023 19:00	65	53	21	24
02.10.2023 20:00	28	16	17	21
02.10.2023 21:00	5	15	18	10
02.10.2023 22:00	2	7	8	3
02.10.2023 23:00	1	1	4	7
03.10.2023 00:00	4	1	3	4
03.10.2023 01:00	3	1	2	0
03.10.2023 02:00	0	2	2	1
03.10.2023 03:00	2	0	1	3
03.10.2023 04:00	0	2	1	2
03.10.2023 05:00	4	1	2	2
03.10.2023 06:00	5	5	1	1
03.10.2023 07:00	6	10	1	3
03.10.2023 08:00	26	17	2	6
03.10.2023 09:00	32	36	6	14
03.10.2023 10:00	25	42	9	7
03.10.2023 11:00	31	36	8	5
03.10.2023 12:00	24	11	2	7
03.10.2023 13:00	24	24	4	10
03.10.2023 14:00	16	8	7	9
03.10.2023 15:00	14	11	4	3
03.10.2023 16:00	8	15	8	6
03.10.2023 17:00	8	6	10	7
03.10.2023 18:00	13	15	3	3
03.10.2023 19:00	15	16	12	12
03.10.2023 20:00	3	4	11	1
03.10.2023 21:00	2	0	3	3
03.10.2023 22:00	0	1	5	3
03.10.2023 23:00	2	3	3	1
04.10.2023 00:00	1	0	0	1
04.10.2023 01:00	0	0	0	1
04.10.2023 02:00	0	0	2	1
04.10.2023 03:00	0	0	0	1
04.10.2023 04:00	0	1	2	1
04.10.2023 05:00	13	6	3	4
04.10.2023 06:00	54	20	21	25
04.10.2023 07:00	109	32	33	67
04.10.2023 08:00	78	32	10	53
04.10.2023 09:00	50	33	18	35
04.10.2023 10:00	54	72	19	36
04.10.2023 11:00	59	69	14	19
04.10.2023 12:00	57	86	19	35
04.10.2023 13:00	45	75	34	28
04.10.2023 14:00	80	56	32	35
04.10.2023 15:00	69	84	46	34
04.10.2023 16:00	65	117	65	45
04.10.2023 17:00	83	128	62	48
04.10.2023 18:00	66	86	58	29
04.10.2023 19:00	37	33	18	26
04.10.2023 20:00	14	18	32	17
04.10.2023 21:00	13	11	17	9
04.10.2023 22:00	2	5	10	4
04.10.2023 23:00	1	6	1	3
05.10.2023 00:00	1	0	2	1
05.10.2023 01:00	0	0	3	2
05.10.2023 02:00	0	1	0	0
05.10.2023 03:00	1	0	0	0
05.10.2023 04:00	0	1	0	2
05.10.2023 05:00	14	7	1	8
05.10.2023 06:00	59	18	24	26
05.10.2023 07:00	87	33	28	60
05.10.2023 08:00	87	25	16	58
05.10.2023 09:00	58	37	18	41
05.10.2023 10:00	37	38	24	24
05.10.2023 11:00	49	41	22	25
05.10.2023 12:00	34	51	27	21
05.10.2023 13:00	46	36	26	29
05.10.2023 14:00	73	65	31	19
05.10.2023 15:00	58	91	31	40
05.10.2023 16:00	67	112	74	42
05.10.2023 17:00	63	121	62	33
05.10.2023 18:00	42	53	42	30
05.10.2023 19:00	24	40	30	30
05.10.2023 20:00	9	13	13	9
05.10.2023 21:00	3	7	13	6
05.10.2023 22:00	4	12	6	3
05.10.2023 23:00	1	4	3	2
06.10.2023 00:00	0	1	0	1
06.10.2023 01:00	0	0	1	1
06.10.2023 02:00	0	0	0	1
06.10.2023 03:00	0	0	2	0
06.10.2023 04:00	0	1	0	2
06.10.2023 05:00	13	4	1	5
06.10.2023 06:00	54	19	15	25
06.10.2023 07:00	75	37	18	44
06.10.2023 08:00	68	27	12	38
06.10.2023 09:00	64	37	38	20
06.10.2023 10:00	53	43	23	19
06.10.2023 11:00	66	77	22	27
06.10.2023 12:00	74	57	32	35
06.10.2023 13:00	60	74	45	33
06.10.2023 14:00	80	110	37	27
06.10.2023 15:00	76	112	46	33
06.10.2023 16:00	96	117	39	23
06.10.2023 17:00	88	92	44	35
06.10.2023 18:00	67	56	23	36
06.10.2023 19:00	46	44	31	49
06.10.2023 20:00	5	11	11	11
06.10.2023 21:00	4	12	12	4
06.10.2023 22:00	9	7	26	4
06.10.2023 23:00	1	8	4	3
07.10.2023 00:00	1	4	2	2
07.10.2023 01:00	0	2	4	0
07.10.2023 02:00	0	0	0	4
07.10.2023 03:00	1	0	2	0
07.10.2023 04:00	1	2	1	2
07.10.2023 05:00	2	2	2	0
07.10.2023 06:00	3	6	1	4
07.10.2023 07:00	10	8	2	4
07.10.2023 08:00	23	22	4	5
07.10.2023 09:00	40	43	16	15
07.10.2023 10:00	56	55	25	12
07.10.2023 11:00	76	103	18	14
07.10.2023 12:00	96	109	27	40
07.10.2023 13:00	91	128	28	33
07.10.2023 14:00	115	108	17	30
07.10.2023 15:00	107	115	25	36
07.10.2023 16:00	135	84	33	15
07.10.2023 17:00	108	62	25	20
07.10.2023 18:00	49	48	21	26
07.10.2023 19:00	38	36	25	34
07.10.2023 20:00	9	19	19	21
07.10.2023 21:00	9	7	9	9
07.10.2023 22:00	4	7	9	3
07.10.2023 23:00	7	5	2	4
08.10.2023 00:00	5	1	8	6
08.10.2023 01:00	0	1	4	0
08.10.2023 02:00	0	2	0	2
08.10.2023 03:00	1	0	3	4
08.10.2023 04:00	1	0	0	0
08.10.2023 05:00	1	1	2	0
08.10.2023 06:00	2	7	0	4
08.10.2023 07:00	6	6	2	2
08.10.2023 08:00	27	23	5	4
08.10.2023 09:00	40	33	10	5
08.10.2023 10:00	50	72	13	18
08.10.2023 11:00	77	76	11	14
08.10.2023 12:00	82	91	8	14
08.10.2023 13:00	82	74	24	13
08.10.2023 14:00	118	82	18	21
08.10.2023 15:00	92	91	17	24
08.10.2023 16:00	85	59	27	16
08.10.2023 17:00	37	56	11	29
08.10.2023 18:00	45	37	8	21
08.10.2023 19:00	26	19	10	21
08.10.2023 20:00	3	3	12	10
08.10.2023 21:00	4	6	15	8
08.10.2023 22:00	2	1	12	3
08.10.2023 23:00	0	0	0	0
09.10.2023 00:00	3	1	0	1
09.10.2023 01:00	0	0	0	0
09.10.2023 02:00	0	0	0	1
09.10.2023 03:00	1	0	0	0
09.10.2023 04:00	1	1	0	2
09.10.2023 05:00	11	9	3	8
09.10.2023 06:00	63	20	20	32
09.10.2023 07:00	80	37	27	58
09.10.2023 08:00	61	28	22	44
09.10.2023 09:00	36	23	13	31
09.10.2023 10:00	37	33	13	14
09.10.2023 11:00	29	26	16	16
09.10.2023 12:00	46	41	27	24
09.10.2023 13:00	48	49	18	30
09.10.2023 14:00	57	50	34	30
09.10.2023 15:00	69	90	40	28
09.10.2023 16:00	71	124	59	40
09.10.2023 17:00	83	126	53	44
09.10.2023 18:00	62	67	58	20
09.10.2023 19:00	26	42	17	24
09.10.2023 20:00	14	6	11	6
09.10.2023 21:00	8	6	9	7
09.10.2023 22:00	1	9	3	6
09.10.2023 23:00	2	1	0	3
10.10.2023 00:00	0	1	0	2
10.10.2023 01:00	2	0	0	1
10.10.2023 02:00	0	0	2	0
10.10.2023 03:00	1	1	0	0
10.10.2023 04:00	1	1	1	2
10.10.2023 05:00	11	6	4	8
10.10.2023 06:00	74	25	20	30
10.10.2023 07:00	109	44	35	52
10.10.2023 08:00	85	28	21	82
10.10.2023 09:00	66	27	24	56
10.10.2023 10:00	50	72	21	37
10.10.2023 11:00	103	94	23	28
10.10.2023 12:00	85	107	31	31
10.10.2023 13:00	66	116	25	33
10.10.2023 14:00	97	117	29	31
10.10.2023 15:00	115	133	60	45
10.10.2023 16:00	112	179	58	41
10.10.2023 17:00	113	156	71	39
10.10.2023 18:00	80	106	57	52
10.10.2023 19:00	56	32	28	21
10.10.2023 20:00	19	17	22	14
10.10.2023 21:00	5	6	14	10
10.10.2023 22:00	2	7	14	4
10.10.2023 23:00	0	9	5	6
11.10.2023 00:00	1	0	1	6
11.10.2023 01:00	3	1	1	0
11.10.2023 02:00	0	0	0	0
11.10.2023 03:00	0	0	0	1
11.10.2023 04:00	0	3	1	0
11.10.2023 05:00	14	5	7	9
11.10.2023 06:00	67	24	20	25
11.10.2023 07:00	101	47	32	69
11.10.2023 08:00	90	38	21	79
11.10.2023 09:00	66	35	13	50
11.10.2023 10:00	76	84	20	24
11.10.2023 11:00	92	93	23	24
11.10.2023 12:00	89	98	26	27
11.10.2023 13:00	88	115	33	38
11.10.2023 14:00	117	123	34	43
11.10.2023 15:00	94	183	49	38
11.10.2023 16:00	185	200	64	48
11.10.2023 17:00	152	150	76	48
11.10.2023 18:00	111	85	53	35
11.10.2023 19:00	58	41	31	25
11.10.2023 20:00	20	15	20	16
11.10.2023 21:00	9	11	17	4
11.10.2023 22:00	3	12	11	4
11.10.2023 23:00	3	1	3	4
12.10.2023 00:00	1	1	3	2
12.10.2023 01:00	0	1	1	4
12.10.2023 02:00	0	1	2	0
12.10.2023 03:00	1	0	0	1
12.10.2023 04:00	0	0	1	2
12.10.2023 05:00	6	1	2	2
12.10.2023 06:00	30	7	8	11
12.10.2023 07:00	37	14	13	20
12.10.2023 08:00	30	14	11	32
12.10.2023 09:00	11	8	6	23
12.10.2023 10:00	8	7	6	12
12.10.2023 11:00	27	10	6	23
12.10.2023 12:00	15	29	5	15
12.10.2023 13:00	15	17	16	14
12.10.2023 14:00	19	13	20	15
12.10.2023 15:00	19	35	26	18
12.10.2023 16:00	15	34	36	34
12.10.2023 17:00	28	52	35	23
12.10.2023 18:00	17	25	15	10
12.10.2023 19:00	14	11	26	14
12.10.2023 20:00	4	6	7	8
12.10.2023 21:00	4	6	7	7
12.10.2023 22:00	3	2	7	2
12.10.2023 23:00	1	1	3	3
13.10.2023 00:00	0	0	3	6
13.10.2023 01:00	0	1	3	3
13.10.2023 02:00	0	0	3	0
13.10.2023 03:00	0	2	0	2
13.10.2023 04:00	0	1	1	0
13.10.2023 05:00	5	3	3	3
13.10.2023 06:00	36	6	7	17
13.10.2023 07:00	39	10	13	15
13.10.2023 08:00	29	13	8	18
13.10.2023 09:00	21	13	6	20
13.10.2023 10:00	33	23	11	12
13.10.2023 11:00	60	43	13	24
13.10.2023 12:00	60	35	14	14
13.10.2023 13:00	43	49	25	24
13.10.2023 14:00	61	77	20	26
13.10.2023 15:00	51	73	30	27
13.10.2023 16:00	70	73	27	20
13.10.2023 17:00	54	63	35	26
13.10.2023 18:00	29	28	22	32
13.10.2023 19:00	13	9	18	18
13.10.2023 20:00	6	5	6	5
13.10.2023 21:00	2	5	4	2
13.10.2023 22:00	2	0	6	1
13.10.2023 23:00	2	1	4	3
14.10.2023 00:00	5	2	3	4
14.10.2023 01:00	0	4	8	3
14.10.2023 02:00	0	0	1	2
14.10.2023 03:00	0	0	1	1
14.10.2023 04:00	1	0	0	0
14.10.2023 05:00	0	2	4	2
14.10.2023 06:00	3	2	1	2
14.10.2023 07:00	5	1	1	5
14.10.2023 08:00	11	13	3	9
14.10.2023 09:00	22	32	7	11
14.10.2023 10:00	62	56	8	16
14.10.2023 11:00	71	79	16	21
14.10.2023 12:00	79	112	18	35
14.10.2023 13:00	73	81	15	37
14.10.2023 14:00	73	91	25	32
14.10.2023 15:00	67	62	25	16
14.10.2023 16:00	89	48	18	19
14.10.2023 17:00	40	43	20	21
14.10.2023 18:00	28	22	10	16
14.10.2023 19:00	15	9	7	17
14.10.2023 20:00	9	6	11	6
14.10.2023 21:00	1	1	4	0
14.10.2023 22:00	5	1	9	5
14.10.2023 23:00	5	2	4	1
15.10.2023 00:00	2	3	3	2
15.10.2023 01:00	5	2	2	4
15.10.2023 02:00	1	1	0	2
15.10.2023 03:00	0	0	2	2
15.10.2023 04:00	0	0	0	0
15.10.2023 05:00	0	2	1	4
15.10.2023 06:00	3	2	1	2
15.10.2023 07:00	3	1	2	4
15.10.2023 08:00	6	8	1	0
15.10.2023 09:00	17	15	2	7
15.10.2023 10:00	32	26	7	13
15.10.2023 11:00	29	34	10	9
15.10.2023 12:00	40	29	8	10
15.10.2023 13:00	36	49	7	12
15.10.2023 14:00	59	47	13	12
15.10.2023 15:00	50	48	11	26
15.10.2023 16:00	31	49	17	21
15.10.2023 17:00	43	37	8	13
15.10.2023 18:00	28	16	5	7
15.10.2023 19:00	8	7	6	3
15.10.2023 20:00	4	6	7	6
15.10.2023 21:00	1	7	2	3
15.10.2023 22:00	7	1	3	2
15.10.2023 23:00	1	0	0	1
16.10.2023 00:00	0	0	0	1
16.10.2023 01:00	0	0	0	1
16.10.2023 02:00	0	0	0	2
16.10.2023 03:00	0	0	0	0
16.10.2023 04:00	1	0	0	1
16.10.2023 05:00	13	3	4	5
16.10.2023 06:00	72	11	24	29
16.10.2023 07:00	101	66	35	68
16.10.2023 08:00	81	33	20	80
16.10.2023 09:00	43	14	17	29
16.10.2023 10:00	23	36	8	25
16.10.2023 11:00	37	27	15	33
16.10.2023 12:00	28	34	31	26
16.10.2023 13:00	46	44	23	28
16.10.2023 14:00	63	72	31	21
16.10.2023 15:00	68	82	49	37
16.10.2023 16:00	84	107	61	48
16.10.2023 17:00	55	112	66	34
16.10.2023 18:00	54	58	48	31
16.10.2023 19:00	25	26	38	19
16.10.2023 20:00	12	10	19	7
16.10.2023 21:00	4	7	12	8
16.10.2023 22:00	2	5	19	5
16.10.2023 23:00	2	0	5	2
17.10.2023 00:00	0	1	2	1
17.10.2023 01:00	0	0	0	0
17.10.2023 02:00	1	0	0	0
17.10.2023 03:00	0	0	0	2
17.10.2023 04:00	2	0	0	2
17.10.2023 05:00	11	5	4	7
17.10.2023 06:00	84	25	25	36
17.10.2023 07:00	111	54	29	84
17.10.2023 08:00	93	41	27	95
17.10.2023 09:00	52	31	18	47
17.10.2023 10:00	38	39	14	26
17.10.2023 11:00	33	57	15	26
17.10.2023 12:00	54	58	26	25
17.10.2023 13:00	79	71	34	24
17.10.2023 14:00	64	78	48	27
17.10.2023 15:00	92	117	40	42
17.10.2023 16:00	86	130	69	51
17.10.2023 17:00	85	134	83	48
17.10.2023 18:00	60	56	66	29
17.10.2023 19:00	42	23	29	29
17.10.2023 20:00	16	11	24	2
17.10.2023 21:00	6	8	22	9
17.10.2023 22:00	2	6	14	5
17.10.2023 23:00	0	0	3	2
18.10.2023 00:00	0	0	1	1
18.10.2023 01:00	0	0	1	1
18.10.2023 02:00	0	0	0	0
18.10.2023 03:00	1	0	1	0
18.10.2023 04:00	1	1	1	0
18.10.2023 05:00	17	2	3	9
18.10.2023 06:00	73	15	22	28
18.10.2023 07:00	100	53	25	79
18.10.2023 08:00	106	40	20	83
18.10.2023 09:00	31	29	14	53
18.10.2023 10:00	28	30	14	28
18.10.2023 11:00	43	55	19	27
18.10.2023 12:00	34	62	20	28
18.10.2023 13:00	73	51	31	27
18.10.2023 14:00	57	80	41	31
18.10.2023 15:00	78	96	47	30
18.10.2023 16:00	81	110	67	46
18.10.2023 17:00	78	125	77	48
18.10.2023 18:00	51	64	51	43
18.10.2023 19:00	24	31	31	18
18.10.2023 20:00	5	7	21	19
18.10.2023 21:00	11	11	20	6
18.10.2023 22:00	4	8	12	9
18.10.2023 23:00	0	2	9	2
19.10.2023 00:00	0	2	0	1
19.10.2023 01:00	1	0	0	1
19.10.2023 02:00	0	0	0	0
19.10.2023 03:00	1	0	0	1
19.10.2023 04:00	0	0	1	0
19.10.2023 05:00	17	3	6	1
19.10.2023 06:00	65	8	15	29
19.10.2023 07:00	116	32	23	71
19.10.2023 08:00	98	31	27	63
19.10.2023 09:00	39	29	17	57
19.10.2023 10:00	24	31	20	22
19.10.2023 11:00	29	31	18	19
19.10.2023 12:00	26	39	25	24
19.10.2023 13:00	40	44	36	20
19.10.2023 14:00	41	67	41	25
19.10.2023 15:00	57	79	50	34
19.10.2023 16:00	32	80	36	40
19.10.2023 17:00	33	76	60	46
19.10.2023 18:00	27	53	43	37
19.10.2023 19:00	22	15	27	13
19.10.2023 20:00	16	4	14	5
19.10.2023 21:00	5	11	13	9
19.10.2023 22:00	4	4	7	5
19.10.2023 23:00	0	5	4	1
20.10.2023 00:00	0	0	2	1
20.10.2023 01:00	0	0	1	1
20.10.2023 02:00	0	0	4	0
20.10.2023 03:00	0	0	0	1
20.10.2023 04:00	1	1	1	0
20.10.2023 05:00	13	3	2	2
20.10.2023 06:00	37	9	13	16
20.10.2023 07:00	55	31	16	37
20.10.2023 08:00	42	21	18	33
20.10.2023 09:00	9	7	4	12
20.10.2023 10:00	4	4	5	7
20.10.2023 11:00	12	6	13	7
20.10.2023 12:00	6	11	7	13
20.10.2023 13:00	17	21	15	16
20.10.2023 14:00	25	34	18	13
20.10.2023 15:00	15	27	20	17
20.10.2023 16:00	25	38	16	12
20.10.2023 17:00	8	28	20	14
20.10.2023 18:00	4	12	12	15
20.10.2023 19:00	10	10	14	10
20.10.2023 20:00	6	4	6	9
20.10.2023 21:00	3	11	4	6
20.10.2023 22:00	1	1	2	5
20.10.2023 23:00	3	1	9	4
21.10.2023 00:00	1	7	8	3
21.10.2023 01:00	0	0	3	3
21.10.2023 02:00	2	0	0	3
21.10.2023 03:00	0	1	0	2
21.10.2023 04:00	0	0	0	0
21.10.2023 05:00	1	1	3	0
21.10.2023 06:00	3	1	4	4
21.10.2023 07:00	3	5	5	4
21.10.2023 08:00	9	9	4	7
21.10.2023 09:00	11	17	4	7
21.10.2023 10:00	30	41	7	9
21.10.2023 11:00	37	63	15	18
21.10.2023 12:00	47	59	18	26
21.10.2023 13:00	47	87	20	25
21.10.2023 14:00	67	63	36	25
21.10.2023 15:00	91	70	22	27
21.10.2023 16:00	86	65	19	20
21.10.2023 17:00	56	67	32	29
21.10.2023 18:00	50	29	14	20
21.10.2023 19:00	16	12	11	11
21.10.2023 20:00	8	5	10	8
21.10.2023 21:00	11	7	4	7
21.10.2023 22:00	5	6	6	4
21.10.2023 23:00	1	9	4	7
22.10.2023 00:00	1	5	5	5
22.10.2023 01:00	1	7	2	1
22.10.2023 02:00	1	3	8	6
22.10.2023 03:00	0	0	2	6
22.10.2023 04:00	1	1	1	1
22.10.2023 05:00	3	0	2	0
22.10.2023 06:00	6	5	2	2
22.10.2023 07:00	2	2	3	2
22.10.2023 08:00	8	16	1	3
22.10.2023 09:00	21	23	5	22
22.10.2023 10:00	34	43	12	12
22.10.2023 11:00	42	57	12	6
22.10.2023 12:00	54	66	8	8
22.10.2023 13:00	69	59	16	21
22.10.2023 14:00	65	78	16	21
22.10.2023 15:00	56	74	17	17
22.10.2023 16:00	48	40	14	12
22.10.2023 17:00	48	19	5	15
22.10.2023 18:00	23	16	9	22
22.10.2023 19:00	6	14	18	6
22.10.2023 20:00	6	9	9	5
22.10.2023 21:00	5	4	9	7
22.10.2023 22:00	1	0	6	7
22.10.2023 23:00	3	1	2	1
23.10.2023 00:00	0	0	0	0
23.10.2023 01:00	0	0	0	1
23.10.2023 02:00	0	0	0	0
23.10.2023 03:00	0	1	0	1
23.10.2023 04:00	1	0	1	0
23.10.2023 05:00	9	7	4	15
23.10.2023 06:00	73	24	20	31
23.10.2023 07:00	106	51	24	83
23.10.2023 08:00	111	44	22	78
23.10.2023 09:00	51	32	11	40
23.10.2023 10:00	39	36	12	22
23.10.2023 11:00	51	56	24	22
23.10.2023 12:00	58	84	22	25
23.10.2023 13:00	71	82	33	24
23.10.2023 14:00	84	70	43	34
23.10.2023 15:00	84	116	71	32
23.10.2023 16:00	91	127	79	33
23.10.2023 17:00	81	133	57	39
23.10.2023 18:00	44	63	46	31
23.10.2023 19:00	21	22	30	12
23.10.2023 20:00	10	6	19	9
23.10.2023 21:00	7	8	10	5
23.10.2023 22:00	1	7	8	7
23.10.2023 23:00	3	1	2	4
24.10.2023 00:00	0	0	0	4
24.10.2023 01:00	0	0	2	1
24.10.2023 02:00	0	0	1	0
24.10.2023 03:00	0	0	0	0
24.10.2023 04:00	0	1	1	2
24.10.2023 05:00	12	5	1	8
24.10.2023 06:00	64	18	13	20
24.10.2023 07:00	92	51	25	76
24.10.2023 08:00	74	48	23	67
24.10.2023 09:00	47	22	23	43
24.10.2023 10:00	30	29	14	21
24.10.2023 11:00	31	26	13	21
24.10.2023 12:00	31	45	25	24
24.10.2023 13:00	36	50	21	14
24.10.2023 14:00	32	44	33	14
24.10.2023 15:00	16	53	34	16
24.10.2023 16:00	46	78	63	48
24.10.2023 17:00	40	88	59	37
24.10.2023 18:00	37	56	56	34
24.10.2023 19:00	26	12	26	23
24.10.2023 20:00	7	10	19	9
24.10.2023 21:00	4	10	12	8
24.10.2023 22:00	2	7	11	4
24.10.2023 23:00	0	2	9	4
25.10.2023 00:00	2	0	7	5
25.10.2023 01:00	0	0	1	0
25.10.2023 02:00	0	0	1	1
25.10.2023 03:00	0	0	1	0
25.10.2023 04:00	1	2	1	2
25.10.2023 05:00	11	3	4	5
25.10.2023 06:00	59	17	12	19
25.10.2023 07:00	89	42	24	62
25.10.2023 08:00	64	26	19	78
25.10.2023 09:00	33	29	20	37
25.10.2023 10:00	29	33	12	21
25.10.2023 11:00	36	30	19	23
25.10.2023 12:00	54	24	27	20
25.10.2023 13:00	13	27	22	20
25.10.2023 14:00	26	31	17	12
25.10.2023 15:00	28	30	25	14
25.10.2023 16:00	20	58	37	19
25.10.2023 17:00	23	61	49	30
25.10.2023 18:00	16	38	38	15
25.10.2023 19:00	12	18	13	14
25.10.2023 20:00	7	1	11	8
25.10.2023 21:00	8	9	12	1
25.10.2023 22:00	1	1	8	2
25.10.2023 23:00	0	1	1	3
26.10.2023 00:00	1	0	1	1
26.10.2023 01:00	0	0	2	0
26.10.2023 02:00	0	0	0	0
26.10.2023 03:00	0	1	0	0
26.10.2023 04:00	1	1	1	0
26.10.2023 05:00	12	2	1	2
26.10.2023 06:00	40	12	15	21
26.10.2023 07:00	80	38	17	66
26.10.2023 08:00	67	30	21	54
26.10.2023 09:00	32	20	10	35
26.10.2023 10:00	17	25	10	25
26.10.2023 11:00	21	32	16	18
26.10.2023 12:00	25	34	22	17
26.10.2023 13:00	41	37	38	39
26.10.2023 14:00	46	43	27	21
26.10.2023 15:00	33	60	42	28
26.10.2023 16:00	52	82	48	38
26.10.2023 17:00	39	86	56	41
26.10.2023 18:00	47	49	42	25
26.10.2023 19:00	24	19	21	21
26.10.2023 20:00	13	17	15	11
26.10.2023 21:00	4	11	12	6
26.10.2023 22:00	5	7	11	6
26.10.2023 23:00	0	1	6	2
27.10.2023 00:00	2	0	3	4
27.10.2023 01:00	0	0	1	0
27.10.2023 02:00	0	0	7	0
27.10.2023 03:00	2	0	3	1
27.10.2023 04:00	0	1	1	0
27.10.2023 05:00	13	5	2	1
27.10.2023 06:00	36	8	12	9
27.10.2023 07:00	51	25	13	44
27.10.2023 08:00	32	16	9	30
27.10.2023 09:00	7	12	3	16
27.10.2023 10:00	11	8	7	9
27.10.2023 11:00	6	4	7	4
27.10.2023 12:00	8	6	15	11
27.10.2023 13:00	14	24	21	14
27.10.2023 14:00	24	31	19	15
27.10.2023 15:00	16	43	27	12
27.10.2023 16:00	11	31	24	18
27.10.2023 17:00	12	29	20	12
27.10.2023 18:00	7	24	16	13
27.10.2023 19:00	11	11	6	4
27.10.2023 20:00	5	5	9	6
27.10.2023 21:00	5	3	8	2
27.10.2023 22:00	4	1	3	1
27.10.2023 23:00	2	2	6	3
28.10.2023 00:00	0	5	3	8
28.10.2023 01:00	0	0	2	2
28.10.2023 02:00	1	0	2	1
28.10.2023 03:00	0	0	1	1
28.10.2023 04:00	0	2	1	1
28.10.2023 05:00	3	0	2	2
28.10.2023 06:00	1	1	2	5
28.10.2023 07:00	9	7	3	5
28.10.2023 08:00	10	9	2	8
28.10.2023 09:00	21	20	6	13
28.10.2023 10:00	26	29	9	15
28.10.2023 11:00	28	27	13	22
28.10.2023 12:00	19	22	23	20
28.10.2023 13:00	41	37	17	15
28.10.2023 14:00	63	41	9	16
28.10.2023 15:00	35	28	11	24
28.10.2023 16:00	31	45	17	12
28.10.2023 17:00	38	28	12	14
28.10.2023 18:00	17	15	10	12
28.10.2023 19:00	7	8	6	9
28.10.2023 20:00	6	7	6	5
28.10.2023 21:00	6	4	1	1
28.10.2023 22:00	2	1	3	3
28.10.2023 23:00	0	2	1	5
29.10.2023 00:00	4	5	2	2
29.10.2023 01:00	0	0	2	2
29.10.2023 02:00	0	0	3	5
29.10.2023 03:00	0	0	0	2
29.10.2023 04:00	1	0	0	4
29.10.2023 05:00	4	1	1	0
29.10.2023 06:00	1	2	1	1
29.10.2023 07:00	9	4	1	3
29.10.2023 08:00	12	18	0	7
29.10.2023 09:00	29	33	3	6
29.10.2023 10:00	56	59	4	4
29.10.2023 11:00	49	59	6	10
29.10.2023 12:00	81	62	13	13
29.10.2023 13:00	63	43	15	12
29.10.2023 14:00	35	37	16	15
29.10.2023 15:00	24	11	12	13
29.10.2023 16:00	19	26	6	15
29.10.2023 17:00	21	12	9	13
29.10.2023 18:00	10	11	11	7
29.10.2023 19:00	5	5	6	9
29.10.2023 20:00	7	4	5	7
29.10.2023 21:00	3	4	5	5
29.10.2023 22:00	5	2	3	4
29.10.2023 23:00	0	1	4	3
30.10.2023 00:00	0	0	1	1
30.10.2023 01:00	0	0	0	0
30.10.2023 02:00	0	0	0	0
30.10.2023 03:00	0	2	0	1
30.10.2023 04:00	4	0	0	4
30.10.2023 05:00	19	3	3	3
30.10.2023 06:00	58	13	17	22
30.10.2023 07:00	93	45	17	66
30.10.2023 08:00	77	36	20	52
30.10.2023 09:00	44	37	22	25
30.10.2023 10:00	46	50	13	29
30.10.2023 11:00	63	52	24	20
30.10.2023 12:00	50	48	23	25
30.10.2023 13:00	67	53	35	19
30.10.2023 14:00	52	68	27	13
30.10.2023 15:00	41	79	43	21
30.10.2023 16:00	40	80	55	28
30.10.2023 17:00	29	49	45	34
30.10.2023 18:00	10	31	29	19
30.10.2023 19:00	11	17	12	11
30.10.2023 20:00	7	4	8	6
30.10.2023 21:00	2	2	11	4
30.10.2023 22:00	4	1	5	1
30.10.2023 23:00	0	0	5	2
31.10.2023 00:00	0	0	1	1
31.10.2023 01:00	0	1	1	1
31.10.2023 02:00	0	0	0	0
31.10.2023 03:00	0	0	0	1
31.10.2023 04:00	1	1	1	0
31.10.2023 05:00	11	2	0	5
31.10.2023 06:00	41	12	13	13
31.10.2023 07:00	75	52	12	58
31.10.2023 08:00	73	35	19	53
31.10.2023 09:00	30	26	15	26
31.10.2023 10:00	25	27	12	20
31.10.2023 11:00	33	26	15	15
31.10.2023 12:00	33	34	19	20
31.10.2023 13:00	34	47	31	17
31.10.2023 14:00	42	41	26	16
31.10.2023 15:00	47	60	37	30
31.10.2023 16:00	45	90	48	33
31.10.2023 17:00	48	51	44	20
31.10.2023 18:00	11	27	20	17
31.10.2023 19:00	16	17	19	14
31.10.2023 20:00	7	4	9	4
31.10.2023 21:00	2	2	6	5
31.10.2023 22:00	1	5	3	6
31.10.2023 23:00	0	5	4	0
01.11.2023 00:00	2	5	1	0
01.11.2023 01:00	0	3	1	5
01.11.2023 02:00	1	0	7	4
01.11.2023 03:00	0	1	1	4
01.11.2023 04:00	0	0	5	1
01.11.2023 05:00	0	0	1	1
01.11.2023 06:00	1	2	1	2
01.11.2023 07:00	5	1	1	3
01.11.2023 08:00	7	12	0	4
01.11.2023 09:00	14	26	4	9
01.11.2023 10:00	55	51	12	11
01.11.2023 11:00	72	87	10	10
01.11.2023 12:00	78	105	21	16
01.11.2023 13:00	123	113	12	17
01.11.2023 14:00	80	93	11	22
01.11.2023 15:00	78	72	13	20
01.11.2023 16:00	60	29	10	16
01.11.2023 17:00	24	15	14	9
01.11.2023 18:00	10	12	5	9
01.11.2023 19:00	7	8	6	3
01.11.2023 20:00	5	3	5	1
01.11.2023 21:00	5	6	9	1
01.11.2023 22:00	0	2	5	0
01.11.2023 23:00	0	3	3	2
02.11.2023 00:00	1	0	1	1
02.11.2023 01:00	0	0	0	0
02.11.2023 02:00	0	0	1	0
02.11.2023 03:00	0	0	0	0
02.11.2023 04:00	1	1	1	0
02.11.2023 05:00	15	3	2	6
02.11.2023 06:00	31	9	11	16
02.11.2023 07:00	56	23	13	43
02.11.2023 08:00	41	16	13	36
02.11.2023 09:00	16	13	10	28
02.11.2023 10:00	12	18	14	20
02.11.2023 11:00	15	7	4	15
02.11.2023 12:00	24	14	13	21
02.11.2023 13:00	24	24	20	25
02.11.2023 14:00	15	26	27	26
02.11.2023 15:00	19	45	28	28
02.11.2023 16:00	29	50	43	34
02.11.2023 17:00	21	32	40	29
02.11.2023 18:00	19	39	30	22
02.11.2023 19:00	6	9	18	11
02.11.2023 20:00	7	8	13	6
02.11.2023 21:00	4	7	8	5
02.11.2023 22:00	5	9	6	4
02.11.2023 23:00	1	1	3	0
03.11.2023 00:00	0	1	3	2
03.11.2023 01:00	0	0	1	0
03.11.2023 02:00	0	0	0	0
03.11.2023 03:00	2	0	0	1
03.11.2023 04:00	1	2	2	0
03.11.2023 05:00	9	3	1	3
03.11.2023 06:00	43	12	11	9
03.11.2023 07:00	93	43	9	48
03.11.2023 08:00	56	33	18	35
03.11.2023 09:00	36	18	11	26
03.11.2023 10:00	27	29	10	21
03.11.2023 11:00	43	46	19	12
03.11.2023 12:00	36	34	25	12
03.11.2023 13:00	39	61	30	31
03.11.2023 14:00	54	68	27	23
03.11.2023 15:00	48	78	31	26
03.11.2023 16:00	57	62	32	37
03.11.2023 17:00	32	55	25	27
03.11.2023 18:00	24	22	28	24
03.11.2023 19:00	19	20	24	14
03.11.2023 20:00	3	14	15	13
03.11.2023 21:00	5	8	6	2
03.11.2023 22:00	6	3	4	6
03.11.2023 23:00	1	5	7	0
04.11.2023 00:00	1	2	2	7
04.11.2023 01:00	2	2	2	3
04.11.2023 02:00	1	2	0	2
04.11.2023 03:00	0	0	1	0
04.11.2023 04:00	0	0	0	1
04.11.2023 05:00	0	0	6	2
04.11.2023 06:00	1	0	3	2
04.11.2023 07:00	8	4	5	5
04.11.2023 08:00	18	22	4	10
04.11.2023 09:00	25	35	5	14
04.11.2023 10:00	43	61	11	12
04.11.2023 11:00	39	46	6	11
04.11.2023 12:00	55	40	12	34
04.11.2023 13:00	24	18	15	11
04.11.2023 14:00	18	26	5	15
04.11.2023 15:00	11	14	12	11
04.11.2023 16:00	19	13	13	8
04.11.2023 17:00	6	5	12	3
04.11.2023 18:00	9	10	8	15
04.11.2023 19:00	1	7	4	4
04.11.2023 20:00	1	3	1	3
04.11.2023 21:00	1	3	3	2
04.11.2023 22:00	2	1	1	5
04.11.2023 23:00	5	2	6	5
05.11.2023 00:00	0	0	6	1
05.11.2023 01:00	1	0	3	0
05.11.2023 02:00	0	0	2	1
05.11.2023 03:00	0	1	1	0
05.11.2023 04:00	0	1	0	2